Weather History for FAMM - October, 2013

Change the Weather History Date:

Wednesday, October 16, 2013

  Actual Average Record
Temperature  
Mean Temperature 76 °F -  
Max Temperature 91 °F - - ()
Min Temperature 60 °F - - ()
Cooling Degree Days 10    
Growing Degree Days 26 (Base 50)    
Moisture  
Dew Point 46 °F    
Average Humidity 35    
Maximum Humidity 63    
Minimum Humidity 12    
Precipitation  
Precipitation 0.00 in - - ()
Sea Level Pressure  
Sea Level Pressure 30.19 in    
Wind  
Wind Speed 11 mph ()    
Max Wind Speed 20 mph    
Max Gust Speed 26 mph    
Visibility 12.1 miles    
Events      
T = Trace of Precipitation, MM = Missing Value Source: Averaged Metar Reports

Daily Weather History Graph

Daily Weather History Graph

Search for Another Location

Airport or City:

Trip Planner

Search our weather history database for the weather conditions in past years. The results will help you decide how hot, cold, wet, or windy it might be!

Date:

Astronomy

Oct. 16, 2013 Rise Set
Actual Time 5:42 AM SAST 6:24 PM SAST
Civil Twilight 5:18 AM SAST 6:48 PM SAST
Nautical Twilight 4:51 AM SAST 7:15 PM SAST
Astronomical Twilight 4:23 AM SAST 7:43 PM SAST
Moon 4:09 PM SAST (10/16) 3:45 AM SAST (10/16)
Length of Visible Light 13h 29m
Length of Day
12h 42m
Waxing Gibbous, 92% of the Moon is Illuminated
Oct 16
Waxing Gibbous
Oct 19
Full
Oct 27
Last Quarter
Nov 3
New
Nov 10
First Quarter

Hourly Weather History & Observations

Time (SAST) Temp. Dew Point Humidity Pressure Visibility Wind Dir Wind Speed Gust Speed Precip Events Conditions
12:00 AM 64.4 °F 44.6 °F 49% 30.24 in - NNE 9.2 mph - N/A   Unknown
1:00 AM 66.2 °F 46.4 °F 49% 30.24 in - NNE 10.4 mph - N/A   Unknown
2:00 AM 65 °F 47 °F 40%  in - NE 12.7 mph - -  
2:00 AM 64.4 °F 46.4 °F 52% 30.21 in - NE 12.7 mph - N/A   Unknown
3:00 AM 62.6 °F 46.4 °F 55% 30.21 in - NNE 13.8 mph - N/A   Unknown
4:00 AM 62.6 °F 46.4 °F 55% 30.21 in - NNE 15.0 mph - N/A   Unknown
5:00 AM 62 °F 49 °F 51%  in 19 mi NNE 15.0 mph - -  
5:00 AM 60.8 °F 48.2 °F 63% 30.21 in - NNE 15.0 mph - N/A   Clear
6:00 AM 60.8 °F 48.2 °F 63% 30.24 in - NNE 13.8 mph - N/A   Clear
7:00 AM 62.6 °F 48.2 °F 59% 30.27 in - NNE 18.4 mph - N/A   Unknown
8:00 AM 70 °F 50 °F 38%  in 19 mi NNE 19.6 mph - -   Clear
8:00 AM 69.8 °F 50.0 °F 49% 30.27 in - NNE 18.4 mph - N/A   Clear
9:00 AM 73.4 °F 46.4 °F 38% 30.27 in - NNE 19.6 mph - N/A   Clear
10:00 AM 78.8 °F 46.4 °F 32% 30.27 in - NNE 16.1 mph - N/A   Clear
11:00 AM 83 °F 48 °F 19%  in 19 mi North 12.7 mph - -   Clear
11:00 AM 82.4 °F 46.4 °F 28% 30.27 in - North 12.7 mph - N/A   Clear
12:00 PM 84.2 °F 46.4 °F 27% 30.24 in - North 12.7 mph - N/A   Clear
1:00 PM 86.0 °F 44.6 °F 23% 30.18 in 6.2 mi NNW 11.5 mph - N/A   Partly Cloudy
2:00 PM 89 °F 46 °F 13%  in 19 mi NNW 10.4 mph - -   Scattered Clouds
2:00 PM 87.8 °F 44.6 °F 22% 30.15 in 6.2 mi NNW 9.2 mph - N/A   Partly Cloudy
3:00 PM 89.6 °F 42.8 °F 20% 30.15 in 6.2 mi NW 10.4 mph - N/A   Partly Cloudy
4:00 PM 87.8 °F 42.8 °F 21% 30.12 in 6.2 mi NNW 10.4 mph - N/A   Scattered Clouds
5:00 PM 89 °F 43 °F 12%  in 19 mi North 11.5 mph - -   Scattered Clouds
5:00 PM 87.8 °F 42.8 °F 21% 30.09 in 6.2 mi North 11.5 mph - N/A   Partly Cloudy
6:00 PM 87.8 °F 42.8 °F 21% 30.09 in 6.2 mi NW 11.5 mph - N/A   Partly Cloudy
7:00 PM 82.4 °F 41.0 °F 23% 30.12 in 6.2 mi NW 6.9 mph - N/A   Partly Cloudy
8:00 PM 81 °F 41 °F 15%  in 19 mi NW 5.8 mph - -   Scattered Clouds
8:00 PM 80.6 °F 41.0 °F 24% 30.12 in - NW 5.8 mph - N/A   Clear
9:00 PM 73.4 °F 39.2 °F 29% 30.12 in - NNE 5.8 mph - N/A   Unknown
10:00 PM 75.2 °F 41.0 °F 29% 30.12 in - NE 6.9 mph - N/A   Unknown
11:00 PM 75 °F 51 °F 32%  in - NW 15.0 mph - -  
11:00 PM 73.4 °F 50.0 °F 44% 30.18 in - NW 15.0 mph 26.5 mph N/A   Unknown